QPF
0.00 0.00 0.00 0.01 0.01 0.01 0.01 0.01 0.01 0.02 0.01 0.02 0.03 0.02 0.03 0.03 0.03 0.03 0.05 0.07 0.06 0.07 0.07 0.06 0.08 0.08 0.08 0.07 0.07 0.08 0.09 0.10 0.09 0.07 0.06 0.03 0.02 0.02 0.02 0.02 0.02 0.03 0.03
0.00 0.00 0.01 0.01 0.01 0.01 0.02 0.02 0.02 0.02 0.02 0.02 0.02 0.03 0.03 0.02 0.02 0.03 0.06 0.07 0.07 0.08 0.08 0.08 0.08 0.10 0.11 0.10 0.09 0.09 0.10 0.10 0.09 0.08 0.10 0.07 0.05 0.03 0.02 0.02 0.01 0.02 0.02
0.00 0.00 0.01 0.01 0.01 0.01 0.02 0.02 0.02 0.03 0.03 0.03 0.03 0.03 0.03 0.04 0.04 0.04 0.05 0.05 0.05 0.04 0.07 0.11 0.12 0.13 0.13 0.13 0.13 0.13 0.13 0.11 0.08 0.07 0.09 0.10 0.07 0.05 0.03 0.02 0.01 0.02 0.02
0.00 0.00 0.00 0.01 0.01 0.02 0.02 0.03 0.03 0.05 0.07 0.06 0.05 0.05 0.05 0.06 0.06 0.05 0.06 0.06 0.05 0.05 0.06 0.08 0.08 0.09 0.09 0.11 0.13 0.15 0.15 0.12 0.08 0.06 0.06 0.06 0.06 0.06 0.04 0.03 0.02 0.02 0.02
0.00 0.00 0.01 0.01 0.02 0.02 0.02 0.03 0.04 0.04 0.06 0.08 0.07 0.06 0.04 0.04 0.04 0.05 0.05 0.05 0.06 0.05 0.04 0.05 0.05 0.05 0.06 0.07 0.10 0.13 0.14 0.11 0.09 0.07 0.06 0.06 0.06 0.05 0.04 0.04 0.03 0.03 0.02
0.00 0.01 0.01 0.02 0.02 0.02 0.01 0.02 0.03 0.03 0.03 0.04 0.04 0.04 0.03 0.03 0.03 0.04 0.05 0.04 0.03 0.03 0.04 0.04 0.03 0.03 0.04 0.05 0.07 0.08 0.11 0.09 0.07 0.06 0.05 0.05 0.06 0.06 0.06 0.05 0.04 0.03 0.02
0.01 0.01 0.02 0.02 0.03 0.02 0.02 0.02 0.02 0.02 0.03 0.03 0.03 0.02 0.03 0.03 0.03 0.03 0.04 0.04 0.02 0.02 0.03 0.03 0.02 0.02 0.02 0.04 0.06 0.06 0.08 0.07 0.05 0.05 0.04 0.04 0.05 0.05 0.05 0.04 0.03 0.03 0.03
0.01 0.01 0.02 0.02 0.03 0.01 0.01 0.01 0.01 0.01 0.01 0.02 0.02 0.03 0.03 0.03 0.03 0.04 0.05 0.05 0.04 0.04 0.04 0.04 0.02 0.01 0.01 0.02 0.03 0.05 0.07 0.06 0.03 0.03 0.04 0.03 0.03 0.04 0.05 0.05 0.04 0.04 0.04
0.01 0.01 0.01 0.01 0.01 0.01 0.01 0.01 0.01 0.01 0.01 0.01 0.02 0.02 0.03 0.02 0.02 0.03 0.04 0.05 0.05 0.04 0.04 0.03 0.02 0.01 0.01 0.01 0.02 0.04 0.06 0.04 0.02 0.02 0.02 0.02 0.03 0.03 0.03 0.04 0.04 0.05 0.04
0.01 0.01 0.01 0.01 0.01 0.01 0.01 0.01 0.01 0.01 0.01 0.02 0.02 0.02 0.03 0.02 0.02 0.02 0.03 0.04 0.04 0.03 0.03 0.02 0.02 0.02 0.02 0.02 0.02 0.02 0.03 0.02 0.02 0.02 0.02 0.02 0.02 0.03 0.03 0.03 0.03 0.04 0.05
0.02 0.01 0.01 0.01 0.02 0.03 0.05 0.03 0.02 0.02 0.02 0.03 0.02 0.02 0.03 0.03 0.02 0.03 0.03 0.03 0.03 0.04 0.04 0.02 0.02 0.03 0.02 0.02 0.02 0.02 0.02 0.01 0.02 0.02 0.02 0.01 0.02 0.03 0.02 0.02 0.03 0.03 0.04
0.01 0.02 0.01 0.02 0.02 0.04 0.07 0.06 0.05 0.03 0.03 0.03 0.04 0.04 0.05 0.04 0.03 0.03 0.03 0.03 0.02 0.03 0.03 0.03 0.03 0.03 0.02 0.03 0.02 0.02 0.02 0.01 0.01 0.01 0.01 0.01 0.02 0.02 0.02 0.02 0.03 0.04 0.03
0.01 0.01 0.01 0.01 0.02 0.03 0.04 0.05 0.06 0.04 0.04 0.05 0.06 0.08 0.07 0.05 0.03 0.02 0.02 0.02 0.03 0.03 0.03 0.03 0.03 0.02 0.02 0.03 0.02 0.02 0.02 0.02 0.01 0.01 0.01 0.02 0.02 0.02 0.02 0.02 0.03 0.03 0.04
0.00 0.01 0.01 0.01 0.01 0.02 0.02 0.02 0.03 0.04 0.04 0.05 0.06 0.08 0.05 0.02 0.01 0.01 0.02 0.02 0.03 0.03 0.03 0.03 0.03 0.03 0.03 0.02 0.02 0.02 0.02 0.02 0.01 0.01 0.01 0.01 0.02 0.02 0.02 0.02 0.03 0.03 0.04
0.01 0.01 0.01 0.01 0.01 0.02 0.02 0.02 0.02 0.02 0.03 0.03 0.04 0.06 0.05 0.02 0.01 0.01 0.02 0.02 0.03 0.02 0.02 0.02 0.03 0.03 0.02 0.02 0.02 0.01 0.01 0.02 0.01 0.01 0.01 0.01 0.01 0.01 0.02 0.02 0.02 0.03 0.03
0.00 0.02 0.03 0.01 0.01 0.01 0.02 0.02 0.01 0.02 0.03 0.03 0.03 0.04 0.04 0.04 0.02 0.02 0.02 0.02 0.02 0.02 0.03 0.03 0.04 0.04 0.02 0.01 0.01 0.01 0.02 0.02 0.02 0.02 0.02 0.01 0.01 0.01 0.01 0.01 0.01 0.03 0.03
0.00 0.01 0.05 0.03 0.01 0.01 0.01 0.02 0.02 0.02 0.02 0.03 0.04 0.04 0.05 0.04 0.03 0.02 0.02 0.02 0.02 0.02 0.02 0.03 0.03 0.02 0.02 0.01 0.01 0.01 0.01 0.02 0.02 0.03 0.02 0.01 0.01 0.02 0.02 0.02 0.01 0.02 0.03
0.01 0.01 0.02 0.03 0.01 0.01 0.01 0.01 0.02 0.02 0.02 0.03 0.04 0.04 0.04 0.05 0.05 0.04 0.03 0.02 0.02 0.02 0.02 0.02 0.02 0.01 0.02 0.01 0.01 0.00 0.01 0.02 0.02 0.02 0.02 0.03 0.02 0.02 0.02 0.02 0.02 0.02 0.02
0.01 0.02 0.02 0.02 0.02 0.02 0.02 0.01 0.01 0.01 0.01 0.03 0.04 0.04 0.04 0.04 0.04 0.04 0.03 0.02 0.02 0.02 0.01 0.02 0.02 0.01 0.03 0.02 0.01 0.01 0.01 0.01 0.02 0.03 0.03 0.02 0.02 0.01 0.01 0.01 0.02 0.03 0.02
0.02 0.02 0.02 0.01 0.02 0.03 0.02 0.01 0.02 0.01 0.01 0.01 0.02 0.03 0.03 0.03 0.03 0.03 0.03 0.03 0.02 0.02 0.02 0.02 0.01 0.01 0.02 0.03 0.02 0.01 0.02 0.02 0.03 0.03 0.04 0.03 0.02 0.01 0.01 0.02 0.02 0.03 0.02
0.02 0.02 0.02 0.01 0.01 0.02 0.02 0.02 0.02 0.02 0.02 0.02 0.02 0.03 0.02 0.02 0.02 0.02 0.02 0.02 0.02 0.02 0.02 0.02 0.02 0.02 0.02 0.03 0.05 0.03 0.02 0.02 0.03 0.04 0.03 0.03 0.02 0.01 0.01 0.01 0.02 0.03 0.03
0.01 0.01 0.01 0.01 0.01 0.01 0.01 0.01 0.02 0.03 0.04 0.03 0.03 0.03 0.03 0.03 0.03 0.03 0.03 0.03 0.03 0.03 0.03 0.03 0.03 0.03 0.03 0.03 0.04 0.04 0.04 0.03 0.03 0.03 0.03 0.03 0.01 0.01 0.01 0.01 0.02 0.02 0.03
0.01 0.01 0.01 0.01 0.02 0.01 0.02 0.02 0.03 0.03 0.04 0.05 0.03 0.03 0.03 0.03 0.03 0.03 0.04 0.05 0.05 0.06 0.05 0.05 0.04 0.03 0.02 0.02 0.02 0.02 0.02 0.02 0.02 0.03 0.03 0.02 0.01 0.01 0.01 0.01 0.02 0.03 0.03
0.01 0.01 0.02 0.02 0.02 0.01 0.02 0.02 0.02 0.03 0.03 0.03 0.03 0.02 0.02 0.03 0.03 0.03 0.03 0.04 0.05 0.07 0.07 0.05 0.04 0.03 0.02 0.01 0.01 0.01 0.01 0.02 0.01 0.01 0.02 0.02 0.02 0.01 0.01 0.01 0.02 0.02 0.04
0.01 0.01 0.01 0.01 0.02 0.01 0.01 0.02 0.02 0.02 0.03 0.03 0.03 0.03 0.02 0.02 0.02 0.02 0.02 0.02 0.02 0.03 0.06 0.06 0.04 0.03 0.03 0.01 0.01 0.01 0.01 0.01 0.02 0.01 0.01 0.01 0.02 0.02 0.02 0.02 0.02 0.02 0.03
0.01 0.01 0.01 0.01 0.01 0.01 0.01 0.01 0.01 0.02 0.03 0.03 0.03 0.03 0.03 0.02 0.01 0.01 0.01 0.02 0.02 0.02 0.03 0.04 0.05 0.04 0.03 0.02 0.02 0.01 0.01 0.01 0.02 0.02 0.02 0.02 0.02 0.02 0.02 0.03 0.03 0.03 0.02
MSLP
1003.52 1003.55 1003.80 1004.25 1004.87 1005.60 1006.37 1007.11 1007.76 1008.31 1008.74 1009.07 1009.33 1009.56 1009.79 1010.05 1010.35 1010.67 1011.00 1011.31 1011.60 1011.84 1012.06 1012.27 1012.51 1012.81 1013.19 1013.66 1014.22 1014.85 1015.50 1016.14 1016.73 1017.23 1017.63 1017.93 1018.15 1018.29 1018.38 1018.44 1018.49 1018.53 1018.57
1003.49 1003.27 1003.34 1003.67 1004.24 1004.99 1005.83 1006.68 1007.46 1008.13 1008.65 1009.05 1009.35 1009.59 1009.82 1010.06 1010.35 1010.66 1011.00 1011.34 1011.66 1011.94 1012.19 1012.44 1012.69 1013.00 1013.37 1013.82 1014.35 1014.93 1015.54 1016.14 1016.68 1017.15 1017.53 1017.82 1018.03 1018.17 1018.27 1018.35 1018.41 1018.45 1018.47
1003.46 1002.97 1002.80 1002.98 1003.48 1004.23 1005.15 1006.12 1007.05 1007.86 1008.52 1009.01 1009.37 1009.64 1009.87 1010.10 1010.36 1010.66 1011.00 1011.35 1011.69 1012.00 1012.29 1012.56 1012.84 1013.14 1013.49 1013.91 1014.39 1014.92 1015.47 1016.01 1016.51 1016.94 1017.29 1017.57 1017.78 1017.94 1018.06 1018.16 1018.24 1018.29 1018.33
1003.49 1002.70 1002.27 1002.26 1002.66 1003.39 1004.37 1005.45 1006.53 1007.50 1008.30 1008.91 1009.35 1009.67 1009.91 1010.13 1010.38 1010.66 1010.99 1011.34 1011.70 1012.04 1012.36 1012.66 1012.95 1013.25 1013.59 1013.97 1014.39 1014.86 1015.34 1015.81 1016.25 1016.64 1016.96 1017.23 1017.45 1017.62 1017.77 1017.90 1018.01 1018.09 1018.14
1003.68 1002.57 1001.88 1001.66 1001.91 1002.59 1003.57 1004.73 1005.92 1007.03 1007.96 1008.69 1009.22 1009.60 1009.87 1010.11 1010.35 1010.63 1010.95 1011.31 1011.69 1012.06 1012.41 1012.73 1013.04 1013.34 1013.66 1014.00 1014.37 1014.77 1015.18 1015.59 1015.97 1016.31 1016.61 1016.86 1017.08 1017.27 1017.45 1017.60 1017.74 1017.85 1017.93
1004.10 1002.72 1001.76 1001.32 1001.40 1001.96 1002.89 1004.05 1005.30 1006.48 1007.51 1008.33 1008.95 1009.39 1009.71 1009.97 1010.23 1010.52 1010.86 1011.24 1011.64 1012.04 1012.42 1012.77 1013.09 1013.40 1013.71 1014.02 1014.35 1014.69 1015.04 1015.39 1015.71 1016.01 1016.28 1016.52 1016.73 1016.93 1017.12 1017.30 1017.47 1017.61 1017.71
1004.85 1003.25 1002.06 1001.39 1001.26 1001.65 1002.45 1003.53 1004.74 1005.92 1006.98 1007.85 1008.52 1009.02 1009.39 1009.69 1009.99 1010.31 1010.68 1011.09 1011.52 1011.95 1012.36 1012.75 1013.09 1013.41 1013.72 1014.02 1014.32 1014.62 1014.93 1015.23 1015.52 1015.78 1016.02 1016.24 1016.45 1016.65 1016.84 1017.04 1017.22 1017.38 1017.51
1005.96 1004.22 1002.85 1001.96 1001.62 1001.78 1002.38 1003.28 1004.35 1005.43 1006.44 1007.29 1007.97 1008.50 1008.91 1009.27 1009.61 1009.98 1010.39 1010.83 1011.30 1011.77 1012.22 1012.63 1013.00 1013.35 1013.66 1013.97 1014.26 1014.56 1014.85 1015.13 1015.39 1015.63 1015.85 1016.05 1016.25 1016.44 1016.63 1016.83 1017.01 1017.18 1017.33
1007.40 1005.61 1004.12 1003.07 1002.49 1002.41 1002.74 1003.38 1004.21 1005.11 1005.96 1006.73 1007.36 1007.89 1008.33 1008.72 1009.11 1009.53 1009.99 1010.48 1010.98 1011.48 1011.96 1012.40 1012.81 1013.18 1013.52 1013.85 1014.16 1014.47 1014.77 1015.05 1015.31 1015.55 1015.76 1015.96 1016.15 1016.33 1016.51 1016.69 1016.88 1017.05 1017.20
1009.09 1007.34 1005.81 1004.63 1003.86 1003.50 1003.53 1003.85 1004.38 1005.00 1005.64 1006.25 1006.78 1007.26 1007.69 1008.11 1008.54 1009.01 1009.50 1010.03 1010.56 1011.08 1011.58 1012.05 1012.48 1012.89 1013.27 1013.63 1013.99 1014.33 1014.67 1014.98 1015.26 1015.51 1015.74 1015.93 1016.12 1016.29 1016.46 1016.63 1016.80 1016.97 1017.12
1010.90 1009.27 1007.77 1006.53 1005.59 1004.99 1004.70 1004.68 1004.86 1005.17 1005.53 1005.92 1006.31 1006.70 1007.09 1007.51 1007.96 1008.45 1008.97 1009.51 1010.06 1010.59 1011.10 1011.59 1012.04 1012.48 1012.90 1013.31 1013.72 1014.12 1014.51 1014.87 1015.19 1015.47 1015.72 1015.93 1016.12 1016.29 1016.46 1016.62 1016.78 1016.94 1017.09
1012.68 1011.22 1009.81 1008.56 1007.52 1006.71 1006.14 1005.78 1005.61 1005.58 1005.65 1005.80 1006.00 1006.27 1006.60 1006.98 1007.42 1007.91 1008.43 1008.97 1009.51 1010.04 1010.55 1011.03 1011.50 1011.97 1012.43 1012.90 1013.37 1013.83 1014.27 1014.69 1015.06 1015.38 1015.65 1015.89 1016.09 1016.27 1016.44 1016.61 1016.78 1016.94 1017.09
1014.29 1013.03 1011.76 1010.55 1009.45 1008.49 1007.69 1007.04 1006.55 1006.19 1005.97 1005.87 1005.88 1006.01 1006.24 1006.56 1006.96 1007.43 1007.93 1008.44 1008.95 1009.46 1009.95 1010.42 1010.90 1011.39 1011.89 1012.40 1012.93 1013.45 1013.95 1014.42 1014.83 1015.19 1015.50 1015.76 1015.98 1016.18 1016.37 1016.56 1016.74 1016.92 1017.09
1015.65 1014.59 1013.49 1012.36 1011.26 1010.20 1009.22 1008.33 1007.57 1006.94 1006.45 1006.11 1005.94 1005.91 1006.03 1006.27 1006.61 1007.02 1007.47 1007.94 1008.41 1008.87 1009.33 1009.79 1010.27 1010.77 1011.30 1011.85 1012.42 1012.99 1013.54 1014.05 1014.50 1014.89 1015.23 1015.51 1015.76 1015.98 1016.20 1016.42 1016.64 1016.86 1017.06
1016.72 1015.86 1014.91 1013.89 1012.82 1011.72 1010.63 1009.57 1008.60 1007.74 1007.03 1006.49 1006.13 1005.96 1005.96 1006.10 1006.36 1006.69 1007.07 1007.48 1007.89 1008.30 1008.72 1009.16 1009.62 1010.13 1010.68 1011.26 1011.87 1012.47 1013.05 1013.58 1014.06 1014.47 1014.82 1015.12 1015.40 1015.66 1015.91 1016.17 1016.44 1016.71 1016.96
1017.53 1016.83 1016.03 1015.12 1014.11 1013.01 1011.85 1010.69 1009.57 1008.54 1007.66 1006.95 1006.44 1006.13 1006.00 1006.04 1006.19 1006.43 1006.73 1007.05 1007.39 1007.74 1008.12 1008.53 1008.98 1009.49 1010.05 1010.65 1011.27 1011.89 1012.48 1013.03 1013.51 1013.93 1014.29 1014.61 1014.91 1015.20 1015.50 1015.82 1016.14 1016.47 1016.79
1018.12 1017.55 1016.88 1016.07 1015.12 1014.05 1012.87 1011.65 1010.44 1009.31 1008.30 1007.47 1006.83 1006.40 1006.15 1006.07 1006.11 1006.25 1006.44 1006.67 1006.92 1007.21 1007.53 1007.90 1008.33 1008.83 1009.39 1009.99 1010.62 1011.24 1011.84 1012.39 1012.87 1013.30 1013.67 1014.01 1014.33 1014.66 1015.01 1015.37 1015.76 1016.15 1016.53
1018.56 1018.09 1017.51 1016.79 1015.91 1014.87 1013.71 1012.48 1011.23 1010.03 1008.95 1008.03 1007.29 1006.75 1006.39 1006.19 1006.11 1006.13 1006.20 1006.32 1006.48 1006.68 1006.93 1007.26 1007.65 1008.13 1008.67 1009.27 1009.90 1010.52 1011.12 1011.66 1012.15 1012.58 1012.97 1013.33 1013.69 1014.06 1014.46 1014.88 1015.32 1015.77 1016.20
1018.92 1018.51 1018.00 1017.34 1016.52 1015.53 1014.40 1013.18 1011.93 1010.72 1009.61 1008.63 1007.83 1007.20 1006.74 1006.42 1006.22 1006.10 1006.05 1006.04 1006.08 1006.18 1006.35 1006.60 1006.94 1007.38 1007.89 1008.47 1009.09 1009.71 1010.31 1010.86 1011.37 1011.82 1012.24 1012.64 1013.04 1013.46 1013.91 1014.38 1014.87 1015.37 1015.84
1019.20 1018.84 1018.37 1017.76 1016.99 1016.05 1014.97 1013.79 1012.58 1011.39 1010.28 1009.29 1008.45 1007.75 1007.20 1006.78 1006.45 1006.20 1006.00 1005.85 1005.76 1005.73 1005.79 1005.95 1006.21 1006.59 1007.06 1007.60 1008.20 1008.81 1009.42 1010.00 1010.54 1011.04 1011.51 1011.97 1012.43 1012.91 1013.41 1013.93 1014.46 1014.99 1015.49
1019.42 1019.08 1018.64 1018.07 1017.35 1016.46 1015.45 1014.34 1013.19 1012.05 1010.98 1010.01 1009.16 1008.43 1007.81 1007.29 1006.84 1006.45 1006.10 1005.80 1005.56 1005.39 1005.31 1005.35 1005.51 1005.80 1006.20 1006.70 1007.27 1007.88 1008.50 1009.11 1009.70 1010.27 1010.82 1011.36 1011.90 1012.44 1013.01 1013.58 1014.14 1014.69 1015.20
1019.54 1019.22 1018.81 1018.27 1017.59 1016.77 1015.83 1014.81 1013.76 1012.71 1011.71 1010.79 1009.96 1009.22 1008.56 1007.96 1007.41 1006.88 1006.40 1005.94 1005.54 1005.21 1004.99 1004.89 1004.92 1005.11 1005.42 1005.86 1006.39 1006.99 1007.63 1008.28 1008.94 1009.59 1010.23 1010.86 1011.49 1012.12 1012.74 1013.36 1013.95 1014.50 1015.01
1019.56 1019.25 1018.86 1018.35 1017.72 1016.98 1016.14 1015.22 1014.28 1013.35 1012.45 1011.61 1010.83 1010.11 1009.43 1008.78 1008.15 1007.53 1006.91 1006.32 1005.77 1005.29 1004.92 1004.67 1004.58 1004.64 1004.86 1005.21 1005.70 1006.28 1006.92 1007.62 1008.34 1009.07 1009.81 1010.54 1011.26 1011.97 1012.66 1013.32 1013.93 1014.48 1014.97
1019.47 1019.17 1018.79 1018.32 1017.75 1017.09 1016.35 1015.56 1014.75 1013.95 1013.17 1012.43 1011.73 1011.05 1010.39 1009.73 1009.06 1008.36 1007.66 1006.96 1006.30 1005.70 1005.19 1004.81 1004.59 1004.53 1004.65 1004.92 1005.34 1005.88 1006.53 1007.25 1008.02 1008.82 1009.64 1010.46 1011.27 1012.05 1012.79 1013.48 1014.10 1014.66 1015.13
1019.29 1018.99 1018.63 1018.20 1017.69 1017.12 1016.48 1015.82 1015.14 1014.48 1013.83 1013.20 1012.59 1011.99 1011.38 1010.74 1010.07 1009.36 1008.63 1007.88 1007.15 1006.47 1005.87 1005.40 1005.07 1004.91 1004.93 1005.11 1005.46 1005.95 1006.57 1007.29 1008.08 1008.92 1009.79 1010.67 1011.54 1012.37 1013.15 1013.86 1014.50 1015.04 1015.49
1019.07 1018.78 1018.44 1018.04 1017.59 1017.09 1016.56 1016.00 1015.45 1014.91 1014.38 1013.87 1013.36 1012.85 1012.32 1011.75 1011.13 1010.46 1009.75 1009.02 1008.30 1007.61 1006.99 1006.47 1006.09 1005.85 1005.79 1005.89 1006.16 1006.58 1007.15 1007.83 1008.60 1009.44 1010.32 1011.21 1012.10 1012.95 1013.75 1014.47 1015.09 1015.62 1016.06
Thickness
5793 5792 5789 5787 5783 5778 5774 5770 5766 5762 5759 5756 5753 5750 5748 5747 5745 5744 5739 5738 5736 5735 5735 5736 5734 5734 5733 5732 5732 5731 5730 5730 5730 5729 5727 5728 5729 5729 5729 5729 5728 5728 5727
5787 5786 5785 5784 5780 5775 5771 5767 5763 5761 5758 5755 5753 5750 5748 5746 5744 5742 5738 5735 5734 5732 5733 5732 5731 5730 5729 5728 5728 5727 5728 5728 5727 5725 5723 5721 5722 5723 5726 5726 5725 5725 5725
5784 5782 5781 5780 5778 5773 5769 5767 5762 5759 5756 5753 5751 5748 5745 5743 5741 5738 5737 5734 5732 5730 5729 5729 5728 5727 5727 5726 5724 5724 5723 5723 5724 5724 5722 5717 5716 5718 5721 5721 5722 5722 5722
5785 5783 5780 5777 5775 5773 5770 5765 5760 5757 5754 5751 5748 5744 5740 5737 5737 5737 5736 5733 5730 5729 5727 5726 5725 5724 5724 5722 5722 5723 5722 5720 5720 5721 5720 5719 5718 5714 5715 5718 5720 5720 5718
5786 5782 5780 5776 5774 5772 5769 5764 5759 5754 5751 5748 5745 5741 5739 5737 5736 5734 5732 5730 5729 5726 5725 5724 5723 5722 5722 5720 5719 5719 5718 5719 5718 5718 5717 5717 5716 5716 5712 5711 5713 5716 5718
5783 5780 5779 5775 5772 5770 5767 5763 5757 5752 5749 5746 5743 5739 5736 5733 5731 5729 5729 5728 5728 5726 5724 5722 5721 5720 5720 5718 5717 5716 5716 5716 5715 5716 5716 5714 5713 5712 5711 5708 5708 5710 5713
5779 5776 5774 5771 5768 5766 5763 5760 5754 5749 5747 5744 5741 5738 5734 5731 5728 5727 5726 5725 5726 5724 5722 5721 5719 5718 5717 5716 5715 5714 5714 5714 5712 5712 5713 5714 5713 5713 5711 5708 5707 5707 5710
5774 5773 5772 5769 5766 5763 5761 5758 5753 5748 5745 5742 5739 5736 5733 5731 5729 5726 5726 5724 5724 5723 5721 5719 5717 5716 5715 5715 5713 5714 5713 5712 5711 5711 5710 5710 5711 5711 5709 5708 5705 5702 5704
5768 5768 5768 5767 5764 5761 5759 5757 5752 5747 5743 5740 5737 5733 5731 5728 5727 5725 5724 5723 5721 5721 5719 5717 5715 5714 5713 5712 5711 5712 5710 5710 5709 5709 5708 5707 5709 5708 5708 5707 5705 5701 5698
5762 5762 5762 5762 5762 5760 5757 5754 5750 5745 5741 5738 5735 5732 5729 5726 5724 5723 5720 5719 5718 5717 5716 5714 5713 5712 5711 5710 5709 5709 5708 5706 5706 5705 5704 5703 5706 5705 5705 5704 5703 5702 5699
5756 5756 5757 5758 5757 5756 5754 5750 5746 5742 5739 5735 5731 5729 5726 5723 5721 5719 5718 5716 5715 5713 5712 5711 5710 5708 5707 5706 5705 5706 5705 5703 5702 5701 5701 5699 5699 5700 5701 5701 5700 5698 5697
5752 5752 5752 5752 5752 5750 5748 5745 5743 5740 5736 5732 5728 5725 5722 5719 5716 5715 5714 5713 5711 5710 5709 5708 5707 5705 5704 5702 5702 5701 5701 5700 5698 5697 5696 5695 5696 5694 5694 5694 5693 5693 5692
5745 5745 5745 5745 5744 5743 5742 5741 5738 5735 5732 5729 5725 5722 5718 5716 5714 5712 5710 5709 5707 5706 5705 5703 5702 5701 5700 5699 5698 5697 5697 5696 5695 5694 5692 5691 5690 5688 5689 5687 5688 5687 5688
5737 5737 5736 5736 5737 5736 5735 5733 5732 5730 5728 5724 5721 5718 5715 5713 5711 5708 5706 5705 5703 5701 5700 5699 5698 5697 5697 5696 5695 5694 5692 5692 5692 5691 5689 5688 5687 5685 5683 5683 5682 5682 5681
5729 5728 5727 5727 5728 5727 5727 5726 5725 5724 5722 5719 5716 5714 5712 5709 5707 5704 5702 5700 5698 5697 5695 5694 5693 5693 5692 5691 5689 5688 5688 5687 5687 5686 5685 5684 5682 5680 5678 5679 5678 5677 5676
5721 5721 5721 5720 5719 5719 5720 5719 5718 5717 5716 5713 5711 5709 5707 5704 5702 5700 5698 5695 5694 5692 5690 5689 5688 5687 5687 5683 5680 5680 5682 5682 5682 5681 5680 5680 5677 5674 5671 5670 5670 5670 5670
5715 5714 5713 5713 5712 5712 5713 5712 5712 5711 5709 5707 5705 5703 5701 5699 5697 5696 5694 5691 5689 5687 5685 5684 5683 5681 5678 5675 5673 5672 5674 5677 5676 5675 5674 5675 5675 5671 5670 5667 5664 5664 5664
5708 5708 5707 5707 5706 5706 5706 5706 5705 5704 5702 5700 5698 5697 5695 5693 5691 5689 5687 5685 5683 5681 5680 5678 5677 5675 5673 5669 5667 5667 5669 5672 5671 5670 5669 5667 5667 5666 5664 5664 5663 5662 5662
5702 5702 5702 5701 5700 5699 5699 5698 5697 5696 5694 5692 5691 5690 5688 5686 5684 5682 5680 5679 5677 5675 5674 5673 5671 5669 5667 5663 5663 5661 5666 5666 5666 5665 5664 5662 5660 5657 5655 5656 5656 5656 5656
5695 5694 5695 5694 5691 5691 5691 5690 5689 5688 5686 5686 5685 5683 5682 5680 5678 5676 5673 5672 5670 5669 5668 5666 5665 5664 5662 5658 5657 5655 5662 5661 5661 5660 5658 5654 5652 5649 5647 5649 5649 5649 5650
5687 5686 5686 5685 5684 5683 5683 5681 5681 5680 5680 5679 5678 5676 5674 5673 5671 5669 5667 5665 5664 5663 5661 5660 5659 5658 5656 5653 5651 5650 5654 5656 5655 5655 5653 5651 5645 5642 5641 5641 5643 5642 5642
5680 5679 5677 5676 5676 5676 5675 5674 5673 5673 5673 5671 5670 5668 5666 5666 5665 5662 5659 5658 5657 5655 5654 5653 5652 5653 5651 5648 5646 5643 5643 5644 5646 5646 5646 5644 5638 5635 5634 5634 5634 5634 5634
5672 5671 5670 5669 5668 5668 5667 5665 5665 5665 5664 5663 5661 5659 5658 5657 5657 5654 5652 5651 5650 5650 5649 5649 5648 5648 5648 5644 5639 5637 5635 5635 5636 5639 5636 5633 5630 5628 5628 5627 5627 5627 5630
5664 5664 5663 5661 5660 5660 5660 5659 5659 5658 5656 5655 5653 5652 5651 5650 5650 5648 5647 5647 5646 5644 5643 5643 5643 5642 5641 5640 5638 5635 5632 5628 5629 5630 5628 5624 5623 5623 5623 5623 5623 5623 5624
5657 5656 5654 5653 5652 5653 5652 5652 5651 5650 5648 5647 5646 5646 5646 5645 5643 5642 5640 5639 5637 5638 5636 5637 5636 5635 5633 5629 5624 5626 5626 5625 5623 5622 5622 5623 5622 5621 5621 5621 5620 5619 5618
5648 5647 5647 5646 5645 5645 5644 5644 5643 5642 5640 5639 5639 5640 5640 5639 5638 5636 5632 5628 5627 5624 5623 5621 5621 5623 5619 5616 5614 5613 5611 5611 5610 5611 5617 5617 5617 5616 5616 5615 5614 5613 5611